sat.trackr.live / text

‹ back to catalog

STARLINK-36218

NORAD 69968 · 2026-157AB

PAYLOAD ACTIVE UNKNOWN

§ Identity

Operator
Country
US
Launch date
2026-07-09
Launch site
AFETR
Launch vehicle
Mass (kg)
RCS (m²)

Purposes: comms

External: N2YO · Heavens-Above · Gunter

§ Orbital elements

Epoch: 2026-09-19T17:00:19.154592Z

Period
93.85 min
Inclination
53.1588°
Eccentricity
0.0001207
Mean motion
15.34412844 rev/d
Perigee alt
461.8 km
Apogee alt
463.5 km
Semi-major
6,840.8 km
B*
3.6069e-4
RAAN
337.2482°
Arg perigee
100.3524°
Mean anomaly
259.7614°
Rev number
1,125

§ Raw data

STARLINK-362181 69968U 26157AB  26262.70855503  .00011834  00000+0  36069-3 0  99932 69968  53.1588 337.2482 0001207 100.3524 259.7614 15.34412844 11253

JSON: /api/v1/satellites/69968 · /tle

For live sub-satellite position, see the globe view (requires WebGL).

§ Visibility from observer

Set your observer location to see the next 7 days of passes ≥ 10°. The values pass through the URL so the page stays shareable.

No JS? Fill the form by hand. The geolocation button needs JavaScript.